TimePDT,TemperatureF,Dew PointF,Humidity,Sea Level PressureIn,VisibilityMPH,Wind Direction,Wind SpeedMPH,Gust SpeedMPH,PrecipitationIn,Events,Conditions,WindDirDegrees,DateUTC
1:56 AM,51.1,46.9,86,29.97,10.0,Calm,Calm,-,N/A,,Overcast,0,2012-10-12 08:56:00
2:56 AM,51.1,46.9,86,29.98,10.0,Calm,Calm,-,N/A,,Overcast,0,2012-10-12 09:56:00
3:56 AM,51.1,48.0,89,29.99,10.0,Calm,Calm,-,N/A,,Overcast,0,2012-10-12 10:56:00
4:56 AM,51.1,46.9,86,29.99,10.0,ESE,4.6,-,N/A,,Overcast,120,2012-10-12 11:56:00
5:56 AM,51.1,46.9,86,30.00,10.0,SE,9.2,-,N/A,,Overcast,140,2012-10-12 12:56:00
6:56 AM,51.1,46.0,83,30.01,10.0,SE,8.1,-,N/A,,Overcast,130,2012-10-12 13:56:00
7:27 AM,51.8,46.4,82,30.02,10.0,SE,5.8,-,N/A,,Overcast,140,2012-10-12 14:27:00
7:56 AM,52.0,46.9,83,30.03,10.0,SE,4.6,-,N/A,,Overcast,130,2012-10-12 14:56:00
8:56 AM,53.1,46.9,80,30.05,10.0,SE,8.1,-,N/A,,Overcast,140,2012-10-12 15:56:00
9:56 AM,53.1,46.9,80,30.08,10.0,SSE,10.4,-,N/A,,Overcast,150,2012-10-12 16:56:00
10:56 AM,55.0,48.0,77,30.10,10.0,SSE,12.7,-,N/A,,Overcast,150,2012-10-12 17:56:00
1:56 PM,57.0,48.9,74,30.11,10.0,SSE,10.4,-,N/A,,Overcast,150,2012-10-12 20:56:00
2:56 PM,57.9,48.9,72,30.11,10.0,SSE,11.5,-,N/A,,Overcast,160,2012-10-12 21:56:00
4:56 PM,60.1,48.9,67,30.13,10.0,SSE,10.4,-,N/A,,Clear,160,2012-10-12 23:56:00
6:56 PM,55.0,50.0,83,30.13,10.0,South,11.5,-,0.00,,Overcast,190,2012-10-13 01:56:00
7:30 PM,55.4,51.8,88,30.14,10.0,SSE,6.9,-,N/A,,Overcast,150,2012-10-13 02:30:00
7:56 PM,54.0,52.0,93,30.15,3.0,SSE,6.9,-,0.00,Rain,Light Rain,160,2012-10-13 02:56:00
8:13 PM,53.6,51.8,94,30.15,3.0,SSE,6.9,-,0.02,Rain,Light Rain,150,2012-10-13 03:13:00
8:18 PM,53.6,51.8,94,30.15,2.5,SSE,6.9,-,0.03,Rain,Light Rain,150,2012-10-13 03:18:00
8:29 PM,53.6,51.8,94,30.16,3.0,SSE,5.8,-,0.03,Rain,Light Rain,150,2012-10-13 03:29:00
9:56 PM,54.0,53.1,97,30.18,6.0,SE,8.1,-,0.00,Rain,Light Rain,140,2012-10-13 04:56:00
10:13 PM,53.6,53.6,100,30.17,8.0,SSE,8.1,-,0.00,,Overcast,160,2012-10-13 05:13:00